Location: ????????
(48.4751°N, 37.6926°E)
Time: 13:37:13
(UTC+00:00)

CZ-4 R/B - Pass Details

Date: 20 January 2021
Orbit: 530 x 599 km, 97.7° (Epoch: 26 February)

Event Time Altitude Azimuth Distance (km) Brightness Sun altitude
Rises 16:14:30 0° 175° (S) 2,802 5.0 -20.4°
Reaches altitude 10° 16:16:42 10° 179° (S) 1,897 4.1 -20.7°
Maximum altitude 16:20:45 58° 259° (W) 673 2.0 -21.4°
Drops below altitude 10° 16:24:46 10° 339° (NNW) 1,873 4.2 -22.1°
Sets 16:26:56 0° 344° (NNW) 2,763 5.0 -22.4°
